[[{"header":{"parameterUnit":"m.s-1","parameterCategory":1,"la1":30.2991,"la2":30.254,"lo1":-89.0895,"lo2":-89.0444,"dy":0.0017,"dx":0.0017,"nx":28,"ny":28,"refTime":"2025-07-18T03:00:00:Z","depth":0,"parameterNumber":2,"parameterNumberName":"U-component_of_WINDS"},"data":[0,0,0,0,0,0,0,0,0,0,0,0,0,0,0,0,0,0,0,0,0,0,0,0,0,0,0,0,0,0,0,0,0,0,0,0,0,0,0,0,0,0,0,0,0,0,0,0,0,0,0,0,0,0,0,0,0,0,1.5487,1.5488,0,1.5553,1.5554,1.5555,1.5571,1.5571,1.557,1.557,1.5637,1.5639,1.5641,0,0,0,0,0,0,0,0,0,0,0,0,0,1.5374,1.5376,1.5487,1.5488,1.5489,1.5553,1.5554,1.5555,1.5571,1.5571,1.557,1.557,1.5636,1.5639,1.5642,0,0,0,0,0,0,0,0,0,0,0,0,0,1.543,1.5376,1.5487,1.5504,1.5507,1.5553,1.5554,1.5555,1.5571,1.5571,1.557,1.5569,1.5635,1.5639,1.5642,1.5675,0,0,1.5652,1.5653,0,0,0,0,0,0,0,0,1.5426,1.5434,1.5501,1.5503,1.5506,1.5553,1.5539,1.5595,1.5571,1.5547,1.557,1.5569,1.561,1.5615,1.5629,1.5678,1.5681,1.5652,1.5654,1.5656,1.5657,0,0,0,0,0,0,0,1.5423,1.5431,1.5513,1.5502,1.5505,1.5509,1.5516,1.5549,1.5581,1.5549,1.555,1.5558,1.5611,1.5626,1.563,1.5682,1.5652,1.5655,1.5657,1.5658,1.5761,1.5762,0,0,0,0,0,0,1.5416,1.5428,1.5511,1.5515,1.5464,1.5511,1.5519,1.5539,1.5581,1.5586,1.5558,1.5558,1.562,1.5627,1.5633,1.5674,1.5656,1.5659,1.5661,1.5761,1.5762,1.5762,0,0,0,0,0,0,1.5413,1.5423,1.5508,1.5472,1.5483,1.5514,1.5535,1.554,1.5555,1.5588,1.5593,1.5568,1.562,1.5628,1.5664,1.5677,1.566,1.5663,1.576,1.5761,1.5762,1.5757,0,0,0,0,0,0,1.541,1.5422,1.5435,1.5472,1.5485,1.5539,1.5536,1.5542,1.5561,1.5561,1.5598,1.5604,1.562,1.5659,1.5668,1.5681,1.5666,1.5759,1.576,1.5762,1.5757,1.5758,1.576,0,0,0,0,0,1.5406,1.5431,1.5436,1.5446,1.5502,1.554,1.5547,1.5566,1.5562,1.5575,1.5596,1.5602,1.5674,1.5663,1.5672,1.5687,1.5758,1.576,1.5761,1.5756,1.5758,1.576,0,0,0,0,0,0,1.5395,1.5436,1.5442,1.548,1.5506,1.5542,1.556,1.5567,1.5595,1.5595,1.5617,1.5625,1.5659,1.5677,1.5664,1.5721,1.5716,1.572,1.5709,1.5711,1.5712,1.5708,1.5668,0,0,0,0,0,1.5397,1.5424,1.5459,1.5489,1.5502,1.5529,1.5546,1.5558,1.5586,1.5597,1.5621,1.5647,1.5676,1.5694,1.5722,1.5759,1.5767,1.5774,1.5775,1.5776,1.5779,1.58,1.5803,1.5768,1.5768,1.5768,0,0,1.5402,1.5428,1.5444,1.5488,1.551,1.5537,1.5538,1.5567,1.5588,1.5601,1.5637,1.5655,1.5686,1.5723,1.574,1.5738,1.5791,1.5779,1.5779,1.5782,1.5802,1.5805,1.5808,1.5769,1.5769,1.5769,0,0,1.5424,1.5447,1.5474,1.5496,1.5529,1.5546,1.5553,1.5588,1.56,1.5636,1.5647,1.5672,1.572,1.5742,1.5759,1.5789,1.5796,1.5798,1.5806,1.5826,1.5829,1.5831,1.5842,1.5846,1.5801,1.5801,1.5801,0,1.5426,1.5468,1.5488,1.5516,1.5535,1.5549,1.5577,1.5597,1.5637,1.565,1.5647,1.5708,1.573,1.5772,1.5779,1.5793,1.5801,1.5794,1.5827,1.583,1.5832,1.5843,1.5847,1.5801,1.5801,1.5801,1.5801,0,1.5468,1.5498,1.5516,1.5554,1.5575,1.5604,1.5627,1.5646,1.5656,1.5673,1.5709,1.5736,1.577,1.578,1.579,1.5823,1.5821,1.5822,1.5818,1.5835,1.5845,1.585,1.5801,1.5801,1.5801,1.5801,0,0,1.5487,1.5535,1.5542,1.5559,1.5596,1.5619,1.5647,1.568,1.5696,1.5723,1.5747,1.5788,1.5789,1.5809,1.5821,1.5839,1.5861,1.5838,1.5839,1.5841,1.5898,1.5897,1.5902,1.5865,1.5866,1.5867,1.5896,0,1.5514,1.5566,1.5584,1.5627,1.5654,1.5666,1.5691,1.5716,1.5733,1.5758,1.5776,1.5805,1.5804,1.5816,1.5834,1.5854,1.5872,1.5852,1.5888,1.5889,1.588,1.5907,1.5906,1.5933,1.59,1.5901,1.5901,0,1.5554,1.5581,1.5626,1.566,1.5671,1.5693,1.5725,1.5749,1.5777,1.5788,1.581,1.5821,1.5851,1.5844,1.5885,1.5871,1.5887,1.5899,1.59,1.5904,1.5896,1.5912,1.5942,1.5945,1.5908,1.5907,1.5907,0,1.5563,1.5611,1.5644,1.5659,1.5698,1.5713,1.573,1.5758,1.5777,1.5804,1.5816,1.5846,1.5863,1.5886,1.5905,1.5898,1.5944,1.5939,1.5954,1.5954,1.5964,1.5963,1.5996,1.5973,1.5973,1.5973,1.5973,0,1.5592,1.5619,1.5649,1.567,1.57,1.572,1.575,1.5768,1.5792,1.5816,1.5829,1.5851,1.5874,1.5899,1.5914,1.5946,1.5953,1.5963,1.5967,1.5962,1.5961,1.5973,1.5972,1.5974,1.5974,1.5974,1.5974,0,1.5607,1.5629,1.5666,1.57,1.5709,1.573,1.5759,1.5779,1.5796,1.5826,1.5835,1.5861,1.5891,1.5912,1.5951,1.5961,1.5995,1.5999,1.5986,1.5988,1.6002,1.6,1.6044,1.605,1.6023,1.6023,1.6023,0,1.5625,1.5646,1.5682,1.5699,1.5716,1.5743,1.5762,1.5782,1.5801,1.5835,1.5851,1.5882,1.5908,1.5955,1.5978,1.6007,1.6012,1.6025,1.6016,1.6011,1.6012,1.6011,1.6013,1.6026,1.6026,1.6027,1.6027,0,1.5653,1.5663,1.5689,1.572,1.5742,1.5767,1.5792,1.5805,1.5829,1.5849,1.588,1.59,1.594,1.597,1.6002,1.6019,1.6027,1.6029,1.6034,1.603,1.6022,1.6026,1.599,1.6028,1.6028,1.6028,1.6028,1.6028,1.5671,1.569,1.5718,1.5748,1.5768,1.5791,1.5812,1.5831,1.5857,1.5891,1.5901,1.5933,1.596,1.6003,1.6021,1.6046,1.6045,1.6052,1.6054,1.6056,1.6056,1.6017,1.6052,1.6052,1.6052,1.6052,1.6052,0,1.57,1.5719,1.5745,1.578,1.5802,1.5808,1.5835,1.5854,1.5882,1.5907,1.5932,1.5967,1.5996,1.6021,1.6051,1.6067,1.6071,1.6074,1.6073,1.6077,1.6055,1.6048,1.607,1.607,1.607,1.607,1.607,1.607,1.5718,1.5751,1.5764,1.5807,1.5825,1.5857,1.5872,1.5893,1.5913,1.5951,1.5976,1.5992,1.6016,1.6048,1.6075,1.6082,1.6092,1.6094,1.6102,1.6081,1.6079,1.6077,1.607,1.6097,1.6097,1.6122,1.6122,1.6122]},{"header":{"parameterUnit":"m.s-1","parameterCategory":1,"la1":30.2991,"la2":30.254,"lo1":-89.0895,"lo2":-89.0444,"dy":0.0017,"dx":0.0017,"nx":28,"ny":28,"refTime":"2025-07-18T03:00:00:Z","depth":0,"parameterNumber":3,"parameterNumberName":"V-component_of_WINDS"},"data":[0,0,0,0,0,0,0,0,0,0,0,0,0,0,0,0,0,0,0,0,0,0,0,0,0,0,0,0,0,0,0,0,0,0,0,0,0,0,0,0,0,0,0,0,0,0,0,0,0,0,0,0,0,0,0,0,0,0,1.0632,1.0632,0,1.0575,1.0574,1.0573,1.0547,1.0547,1.0547,1.0547,1.0484,1.0482,1.048,0,0,0,0,0,0,0,0,0,0,0,0,0,1.0715,1.0713,1.0632,1.0632,1.0631,1.0575,1.0574,1.0573,1.0547,1.0547,1.0547,1.0547,1.0484,1.0482,1.048,0,0,0,0,0,0,0,0,0,0,0,0,0,1.067,1.0713,1.0632,1.0611,1.0609,1.0575,1.0574,1.0573,1.0547,1.0547,1.0547,1.0547,1.0485,1.0483,1.048,1.0462,0,0,1.0472,1.0471,0,0,0,0,0,0,0,0,1.0673,1.0667,1.0615,1.0613,1.061,1.0568,1.058,1.0535,1.0547,1.057,1.0547,1.0547,1.0512,1.0507,1.0496,1.0459,1.0456,1.0472,1.047,1.0469,1.0468,0,0,0,0,0,0,0,1.0676,1.0669,1.0609,1.0614,1.0611,1.0603,1.0597,1.0571,1.0541,1.0568,1.0566,1.056,1.051,1.0498,1.0494,1.0455,1.0472,1.0469,1.0468,1.0467,1.0398,1.0398,0,0,0,0,0,0,1.0683,1.0672,1.0611,1.0608,1.0642,1.0601,1.0594,1.0581,1.0541,1.0535,1.056,1.0559,1.0503,1.0497,1.0492,1.0467,1.0469,1.0467,1.0465,1.0399,1.0398,1.0398,0,0,0,0,0,0,1.0685,1.0678,1.0613,1.0639,1.0631,1.06,1.0585,1.058,1.0568,1.0535,1.0529,1.0554,1.0503,1.0495,1.0469,1.0464,1.0465,1.0463,1.0399,1.0399,1.0398,1.0418,0,0,0,0,0,0,1.0687,1.0679,1.0673,1.064,1.0629,1.0594,1.0585,1.0579,1.0564,1.0563,1.0528,1.0522,1.0502,1.0473,1.0467,1.0461,1.0461,1.0399,1.0399,1.0398,1.0417,1.0418,1.0419,0,0,0,0,0,1.0691,1.068,1.0673,1.0665,1.0621,1.0594,1.0588,1.0567,1.0564,1.0557,1.0535,1.0523,1.0466,1.0471,1.0463,1.0456,1.0399,1.0399,1.0398,1.0417,1.0418,1.0419,0,0,0,0,0,0,1.0712,1.0675,1.0667,1.0645,1.0623,1.0589,1.058,1.0568,1.0545,1.0544,1.0517,1.0509,1.0486,1.0468,1.0474,1.0436,1.0431,1.0429,1.0448,1.0449,1.0449,1.0454,1.0459,0,0,0,0,0,1.0715,1.0697,1.0665,1.0649,1.0638,1.0611,1.0598,1.0584,1.0559,1.0549,1.0525,1.05,1.0477,1.0462,1.0438,1.0414,1.0406,1.0406,1.0406,1.0407,1.0405,1.039,1.039,1.0396,1.0396,1.0396,0,0,1.0719,1.0697,1.0687,1.0652,1.0633,1.0614,1.0603,1.0583,1.0568,1.0545,1.052,1.0501,1.0471,1.0446,1.0434,1.0431,1.0401,1.0406,1.0407,1.0405,1.039,1.0389,1.0389,1.0396,1.0396,1.0396,0,0,1.0718,1.0699,1.0684,1.0665,1.0637,1.0619,1.0615,1.0583,1.057,1.0544,1.0527,1.0507,1.0467,1.0446,1.0431,1.042,1.0407,1.0413,1.0416,1.0402,1.0401,1.0401,1.0396,1.0395,1.0411,1.0411,1.0411,0,1.0727,1.0698,1.0677,1.0658,1.0643,1.0622,1.0605,1.0588,1.0552,1.0542,1.0539,1.0488,1.0466,1.0436,1.0433,1.0421,1.0415,1.0417,1.0403,1.0402,1.0402,1.0397,1.0395,1.0412,1.0412,1.0412,1.0412,0,1.071,1.069,1.0681,1.0649,1.0632,1.0615,1.0589,1.0574,1.0561,1.0543,1.0515,1.0489,1.0459,1.0451,1.0437,1.0417,1.0416,1.0409,1.0404,1.0402,1.0397,1.0395,1.0413,1.0413,1.0413,1.0413,0,0,1.0721,1.0678,1.0674,1.0659,1.0626,1.061,1.059,1.0562,1.055,1.0525,1.0507,1.0474,1.0466,1.0448,1.0432,1.0419,1.0411,1.0413,1.0412,1.0413,1.0387,1.0393,1.0392,1.0403,1.0402,1.0402,1.039,0,1.0715,1.0681,1.0661,1.0634,1.0615,1.0594,1.0577,1.0554,1.0535,1.0515,1.0494,1.047,1.0463,1.0452,1.0438,1.0415,1.0406,1.0416,1.0384,1.0383,1.0393,1.0389,1.0396,1.0386,1.0388,1.0387,1.0387,0,1.0704,1.0682,1.0653,1.0622,1.0613,1.0598,1.057,1.0551,1.0524,1.0511,1.0491,1.0474,1.045,1.0447,1.0413,1.0421,1.0406,1.0393,1.0392,1.0388,1.0385,1.0385,1.0382,1.0381,1.0384,1.0384,1.0384,0,1.0715,1.0677,1.0655,1.0643,1.0605,1.0595,1.0579,1.0551,1.0536,1.0511,1.05,1.0472,1.0456,1.0434,1.041,1.041,1.0378,1.0373,1.0366,1.0366,1.036,1.0361,1.0355,1.0351,1.0351,1.0351,1.0351,0,1.071,1.0693,1.066,1.0646,1.0627,1.0602,1.0583,1.0564,1.054,1.0521,1.0501,1.0483,1.0452,1.043,1.041,1.0385,1.0378,1.0366,1.0361,1.0368,1.0369,1.0358,1.0358,1.035,1.0351,1.0351,1.0351,0,1.0719,1.0696,1.0671,1.0637,1.0628,1.0615,1.0586,1.0571,1.0551,1.0528,1.0521,1.0489,1.0462,1.0436,1.0399,1.0385,1.036,1.0353,1.037,1.0367,1.0361,1.0362,1.0347,1.0344,1.0343,1.0343,1.0343,0,1.0718,1.0705,1.067,1.0657,1.0641,1.062,1.0604,1.0579,1.0562,1.0529,1.0518,1.049,1.0466,1.0423,1.0396,1.0367,1.036,1.0356,1.0355,1.0362,1.0359,1.036,1.0358,1.0357,1.0357,1.0358,1.0358,0,1.0718,1.0707,1.0686,1.066,1.0642,1.062,1.0597,1.0587,1.0557,1.0539,1.0512,1.0494,1.0456,1.0428,1.0396,1.0377,1.0362,1.0358,1.0355,1.0362,1.0372,1.0366,1.0372,1.0359,1.0359,1.0359,1.0358,1.0358,1.0721,1.0709,1.0682,1.0659,1.0639,1.0618,1.0603,1.0581,1.0559,1.0528,1.0513,1.0486,1.0456,1.0412,1.0393,1.0369,1.0366,1.0361,1.036,1.0359,1.0361,1.0376,1.0363,1.0363,1.0363,1.0363,1.0363,0,1.072,1.0702,1.0681,1.065,1.0631,1.062,1.0594,1.0578,1.0555,1.053,1.0507,1.0474,1.0447,1.0417,1.0387,1.0374,1.0366,1.0367,1.0367,1.0363,1.0366,1.0372,1.0373,1.0373,1.0373,1.0373,1.0373,1.0373,1.0717,1.0695,1.0681,1.0648,1.0629,1.0603,1.0589,1.0569,1.0549,1.0515,1.0492,1.0473,1.0445,1.0413,1.0386,1.0378,1.0367,1.037,1.036,1.0363,1.0363,1.0362,1.0367,1.0368,1.0368,1.0359,1.0359,1.0359]}]]